Location: Jetmore
(38.0845°N, 99.8935°W)
Time: 22:00:31
(UTC+00:00)

N. Korean satellite - Pass Details

Date: 18 September 2021
Orbit: 450 x 494 km, 97.3° (Epoch: 28 October)

Event Time Altitude Azimuth Distance (km) Brightness Sun altitude
Rises 11:29:19 0° 20° (NNE) 2,506 10.7 -11.5°
Reaches altitude 10° 11:31:28 10° 29° (NNE) 1,633 9.8 -11.1°
Maximum altitude 11:34:45 37° 98° (E) 752 8.2 -10.5°
Drops below altitude 10° 11:38:03 10° 167° (SSE) 1,646 9.3 -9.8°
Sets 11:40:13 0° 176° (S) 2,529 10.1 -9.4°
